Погода в Аксу

Турция     36°56′57″N   30°51′04″E
темп.,
°C
ветер,
м/с
пор.,
м/с
влажн.,
%
обл.,
%
осадки,
мм/ч
давл.,
гПа
погр.,
м
20 апреля, вт
вт2000:00+19с223795 0.0 100938
03:00+18с2240100 0.0 100825
06:00+17ссз225094 0.0 100950
09:00+20в56613 0.0 1010799
12:00+22вюв455294 0.0 10111046
15:00+22вюв55540 0.0 10101061
18:00+20вюв446518 0.0 1011890
21:00+15вюв14690 0.0 1013292
21 апреля, ср
ср2100:00+14зсз11690 0.0 1013143
03:00+14зсз11630 0.0 101322
06:00+13сз22480 0.0 101435
09:00+19сз23360 0.0 1015560
12:00+23ю42304 0.0 10151613
15:00+21ююв654698 0.0 10151035
18:00+19ююв33480 0.0 1015816
21:00+15св12704 0.0 1017136
22 апреля, чт
чт2200:00+14сз11744 0.0 101779
03:00+13сз11720 0.0 101726
06:00+13сз226294 0.0 101721
09:00+19зсз13370 0.0 1018495
12:00+23ююз33290 0.0 10181562
15:00+22ю65430 0.0 1017811
18:00+21ююв22465 0.0 1017566
21:00+17ссз11595 0.0 101823
23 апреля, пт
пт2300:00+16ссз11545 0.0 101814
03:00+14ссз1142100 0.0 101813
06:00+14ссз22386 0.0 101815
09:00+19св01305 0.0 1019277
12:00+24ююв32265 0.0 1019942
15:00+24ю43325 0.0 10181018
18:00+22ю223889 0.0 1017588
21:00+19с1147100 0.0 101849
24 апреля, сб
сб2400:00+19сз2244100 0.0 101627
03:00+18сз2241100 0.0 101529
06:00+17ссз2242100 0.0 101523
09:00+23сз123497 0.0 1015281
12:00+27ю3227100 0.0 1014856
15:00+27ююв442693 0.0 1013873
18:00+24ююв223454 0.0 1012462
21:00+20с1148100 0.0 101227